Wind_Speed
9 8 7 6 6 5 5 4 4 3 3 3 3 3 3 2 2 2 2 2 2 2 3 3 3 4 4 5 5 5 5 5 5 4 4 4 4 4 4 4 4 4 4 4 4 4 4 4 5 5 5 5 5 5 5 5 6 7 8 8 9 9 9 10 10 11 11 12 12
9 8 7 6 6 5 4 4 3 3 3 3 3 3 2 2 1 1 1 2 2 2 2 2 3 3 4 4 4 4 4 5 5 4 4 3 3 4 4 4 4 4 4 4 4 4 4 5 5 5 6 6 6 7 7 6 6 8 9 9 9 9 9 10 10 11 12 12 12
8 8 7 6 6 5 4 4 4 3 3 3 2 2 1 1 1 1 1 1 1 2 2 2 3 3 3 4 4 4 4 4 4 4 4 3 4 4 4 5 5 5 4 4 4 5 5 6 6 6 7 7 8 8 8 8 8 9 9 10 10 10 10 10 10 11 12 12 12
8 7 7 7 6 5 5 4 4 3 3 2 2 2 1 1 1 0 0 0 1 1 2 2 2 3 3 3 4 4 4 4 4 4 4 4 4 5 5 5 5 5 5 5 5 5 6 7 7 7 8 8 9 9 9 9 9 10 10 10 10 10 10 10 11 11 12 12 12
7 7 6 6 6 5 5 4 3 3 2 2 1 1 1 1 0 0 0 0 0 1 2 2 2 2 3 3 3 4 4 4 4 4 4 5 5 5 6 6 6 6 6 6 6 6 7 8 8 8 8 9 9 9 9 10 10 10 11 11 11 11 11 11 11 12 12 12 12
7 6 6 6 5 5 4 4 3 3 2 2 1 1 1 1 0 0 0 0 0 0 1 1 2 2 3 3 4 4 4 4 4 5 5 5 5 6 6 7 6 6 6 7 7 7 8 8 9 9 9 9 10 10 10 10 11 11 12 12 12 12 12 12 12 12 13 13 13
6 6 6 5 5 5 4 4 3 3 2 2 1 1 1 1 1 0 0 0 0 0 1 1 2 3 3 3 4 4 4 4 5 5 5 5 6 6 7 7 7 7 7 7 8 8 8 9 10 10 10 10 10 10 10 10 11 12 13 14 14 13 13 13 13 13 14 14 14
6 5 5 5 5 4 4 4 3 3 2 2 2 2 1 1 1 1 0 0 0 1 1 1 2 3 3 4 4 4 4 5 5 5 5 6 6 7 7 7 8 8 8 8 8 9 9 10 10 10 10 11 11 11 11 11 12 13 14 15 15 14 14 13 13 14 14 15 15
5 4 4 4 4 4 4 4 3 2 2 2 2 2 2 1 1 1 0 0 0 1 1 2 2 3 3 4 4 4 5 5 6 6 6 6 7 7 8 8 8 8 9 9 9 10 10 10 11 11 11 11 12 12 12 12 12 13 14 15 15 15 15 15 15 15 15 15 15
4 3 3 3 3 4 3 3 2 2 2 2 2 2 2 2 1 1 0 0 1 1 2 2 3 3 3 4 4 4 5 5 6 6 7 7 7 8 8 8 9 9 9 10 10 10 11 11 11 11 11 12 13 13 13 13 14 14 14 15 15 16 16 16 16 16 16 16 16
4 3 3 3 3 3 3 3 2 1 1 1 2 2 2 2 1 1 0 0 1 1 2 2 3 3 3 4 4 4 5 5 6 6 7 7 7 8 8 9 9 9 10 10 10 11 11 11 11 12 13 14 14 14 14 15 15 16 16 17 17 17 17 17 17 17 17 17 18
3 2 2 2 3 3 3 2 2 1 0 1 1 2 2 2 1 1 1 1 1 2 2 2 2 3 3 4 4 5 5 6 6 7 7 8 8 8 8 9 9 9 10 10 10 11 11 12 12 13 14 15 15 15 15 16 17 17 18 18 18 18 18 18 18 18 18 18 18
2 1 2 2 2 2 2 2 2 1 1 1 1 2 2 2 1 1 1 1 2 2 2 2 3 3 3 4 4 5 6 6 7 7 8 8 8 9 9 9 9 10 10 10 10 11 11 12 13 14 15 15 15 15 16 16 17 18 18 19 19 19 19 19 19 19 19 19 19
1 1 1 2 2 2 2 2 2 1 1 1 2 2 2 2 1 1 1 1 2 2 3 3 3 3 4 4 5 5 6 7 8 8 8 9 9 9 10 10 10 10 11 11 11 11 12 13 14 14 15 15 16 16 16 17 17 18 19 19 20 20 20 20 19 19 18 18 18
1 1 1 1 1 2 2 2 2 2 1 2 2 2 2 2 1 1 1 2 2 3 3 3 4 4 4 5 5 6 7 7 8 9 9 9 10 10 10 11 11 11 11 11 12 12 13 13 14 14 15 15 16 17 17 17 18 18 19 19 20 20 21 20 19 19 18 18 18
2 2 1 1 2 2 3 3 3 2 1 2 2 2 2 2 2 2 2 2 2 3 3 4 4 5 5 5 6 7 7 8 8 9 9 10 10 11 11 11 12 12 12 12 13 13 13 13 14 15 15 16 16 17 17 18 18 19 19 20 20 20 20 20 20 19 18 18 18
2 2 2 2 2 3 3 3 3 2 2 2 2 2 2 2 2 2 2 2 3 3 3 4 5 5 6 6 6 7 8 8 9 9 10 10 11 12 12 12 12 13 13 13 14 14 14 14 14 15 15 16 17 17 17 18 18 19 19 20 20 20 20 20 20 19 18 18 19
3 3 3 2 3 3 3 4 4 3 3 3 3 3 2 2 2 3 3 3 3 3 4 5 5 6 6 7 7 7 8 9 9 10 10 11 12 12 12 13 13 13 13 14 14 14 14 15 15 15 16 16 17 17 18 18 19 19 20 20 20 20 20 20 19 19 19 19 19
4 3 3 3 3 4 4 4 5 4 4 4 3 3 3 3 3 3 3 3 3 4 4 5 5 6 6 7 7 8 8 9 10 10 11 11 12 12 13 13 13 14 14 14 14 14 14 15 15 16 16 17 18 18 18 18 19 19 20 20 20 20 19 19 19 18 19 19 20
4 3 3 4 5 5 5 5 5 5 5 4 4 4 4 4 4 4 4 4 4 4 5 5 6 6 6 7 7 8 8 9 10 10 11 11 12 13 13 13 14 14 14 14 14 14 14 15 15 16 17 18 19 19 19 19 19 19 20 20 20 20 19 19 19 19 19 19 20
4 4 4 5 6 6 6 6 6 5 5 5 5 5 5 4 4 4 4 5 5 5 5 6 6 6 7 7 8 8 9 9 10 10 11 12 12 13 13 14 14 14 14 14 14 14 14 15 16 17 17 18 19 19 19 19 20 20 20 20 20 20 20 20 20 20 20 20 21
4 4 5 6 6 6 6 6 6 6 6 6 6 5 5 5 5 5 5 5 5 6 6 6 6 7 7 8 8 9 9 9 10 10 11 12 13 13 13 14 14 15 14 14 14 14 14 15 16 17 17 18 18 19 19 20 20 21 21 21 21 21 21 20 20 21 21 21 21
5 5 6 6 7 7 7 7 7 7 7 7 6 6 6 6 6 6 6 6 6 6 6 6 7 7 7 8 8 9 10 10 11 11 12 12 13 14 14 14 15 15 14 14 13 14 14 15 15 16 17 18 19 19 20 20 21 21 21 21 22 21 21 21 21 21 21 21 21
6 6 7 7 7 7 7 7 8 8 7 7 7 7 7 7 6 6 6 6 7 7 7 7 7 8 8 8 9 10 10 11 11 12 12 13 14 14 15 15 15 15 14 13 13 14 15 14 14 15 16 18 19 20 20 21 21 22 22 22 22 22 22 21 21 21 21 21 21
7 7 8 8 8 8 8 8 8 8 8 8 7 7 7 7 7 7 7 7 7 7 8 8 8 8 8 9 9 10 10 11 12 12 13 13 14 15 15 15 15 15 13 12 12 14 15 15 15 14 15 17 19 20 21 21 22 22 22 22 22 22 22 21 21 20 20 20 20
8 8 8 8 8 8 9 9 9 9 9 8 8 8 8 8 8 8 8 8 8 8 8 8 9 9 9 9 10 10 11 11 12 12 13 14 15 15 16 16 15 14 12 11 12 14 15 15 16 16 16 16 18 20 21 22 22 22 22 22 21 21 21 21 21 20 20 20 20
8 9 9 9 9 9 9 10 10 9 9 9 8 8 8 8 8 8 8 9 9 9 9 9 9 9 9 10 10 11 11 11 12 12 13 14 15 16 16 16 16 14 11 10 12 13 15 15 16 17 17 17 17 18 20 21 22 22 21 21 20 20 20 21 21 21 21 21 21
9 9 9 9 9 10 10 10 10 9 9 9 9 8 8 8 9 9 9 9 9 9 9 9 9 9 9 10 11 11 11 12 12 13 13 14 15 16 17 16 16 14 12 11 12 14 15 15 16 17 18 18 17 17 19 21 21 21 21 20 20 20 20 21 21 21 21 22 22
9 10 10 10 10 10 10 10 10 10 9 9 9 9 9 9 9 10 10 10 10 9 9 9 9 9 10 11 12 12 12 12 12 13 14 15 16 16 16 16 15 13 12 12 13 14 15 15 16 17 18 19 18 17 18 20 20 20 20 20 20 20 20 21 21 21 22 22 22
10 10 10 10 10 10 10 10 10 9 9 9 9 9 9 9 10 10 10 10 10 9 9 9 10 10 11 12 12 12 12 12 13 13 14 15 16 16 16 16 15 13 12 12 13 14 15 14 15 17 18 19 18 17 18 20 20 20 20 20 20 20 21 21 21 21 22 22 22
10 11 11 11 11 11 11 10 10 9 8 8 8 9 9 9 10 10 10 10 10 10 9 10 10 11 12 12 12 12 12 12 13 14 14 14 15 15 15 15 14 11 10 11 13 14 14 14 14 15 17 19 18 18 19 20 20 20 20 20 20 20 21 21 21 21 21 21 21
11 11 11 12 12 11 11 10 10 9 8 8 8 9 9 9 10 10 10 10 10 10 10 10 11 11 12 12 12 12 12 12 13 13 13 13 14 15 15 14 13 10 8 11 13 14 14 13 14 14 16 18 18 19 19 20 20 20 19 19 20 20 20 20 20 20 20 20 20
11 11 12 12 12 12 11 10 9 8 8 8 8 8 9 10 10 10 10 9 9 9 9 10 11 11 12 12 11 11 11 11 11 12 12 13 13 14 14 13 12 10 10 12 14 15 14 14 14 15 16 18 19 19 20 20 19 19 19 19 19 19 20 20 20 19 19 19 18
11 12 12 12 12 12 11 11 9 8 8 8 8 8 9 9 10 10 9 8 8 8 9 10 11 11 11 10 10 10 10 10 10 11 11 12 13 13 13 12 11 10 12 13 14 15 15 16 16 18 19 20 20 20 20 19 19 18 18 18 19 19 19 19 19 18 18 17 17
11 11 12 12 12 12 12 11 10 9 8 8 8 8 9 9 9 9 8 7 7 8 9 10 10 10 9 9 9 9 9 9 9 10 11 12 12 12 12 11 10 10 12 14 15 16 17 17 18 20 21 21 19 18 18 18 18 17 17 18 18 19 19 18 18 17 16 15 15
11 11 11 11 12 12 12 11 10 9 8 8 8 9 9 9 8 8 7 7 8 9 10 10 9 9 9 9 8 8 8 9 9 9 10 10 10 11 11 11 10 10 12 14 16 17 18 19 19 20 20 19 17 17 17 17 17 16 17 17 17 18 18 17 16 16 15 14 14
11 11 10 10 11 11 12 11 10 10 9 9 9 9 8 8 8 7 6 6 8 9 9 9 9 8 8 8 8 8 8 8 8 8 8 9 9 10 10 10 10 10 11 14 16 18 19 19 19 19 18 17 16 16 16 16 16 16 16 16 16 17 17 16 15 14 13 13 14
10 10 10 10 11 11 11 11 11 10 10 9 9 9 8 8 7 7 6 6 8 9 9 9 8 8 7 7 8 7 6 6 6 6 7 8 8 8 9 10 10 9 10 13 16 18 19 18 18 17 16 15 15 16 16 15 15 15 15 15 16 16 16 15 14 13 13 13 14
9 9 9 10 11 11 12 11 11 11 10 9 9 8 8 7 7 6 6 6 7 8 8 8 8 7 7 7 7 7 6 5 4 4 5 7 7 7 8 8 9 9 10 12 16 18 18 17 16 16 15 15 15 14 14 14 14 14 15 15 15 15 15 14 14 13 13 14 14
9 10 10 11 11 12 12 12 11 10 10 9 9 8 7 7 6 6 6 6 7 7 7 7 7 7 6 6 6 6 6 5 4 4 5 6 6 7 8 8 9 9 10 11 14 17 17 16 15 14 15 15 14 14 13 13 13 14 14 14 14 15 15 14 14 13 14 14 14
11 11 11 11 11 12 12 12 11 10 9 9 8 8 7 7 7 7 7 7 6 6 6 6 6 6 5 5 5 5 5 5 4 4 5 5 6 7 7 7 8 9 10 10 13 15 16 14 14 14 14 15 14 13 13 13 13 13 14 14 14 14 14 15 14 14 14 14 14
Wind_Direction
88 87 86 84 82 79 76 75 72 64 53 41 29 20 12 5 4 2 359 356 350 343 338 335 336 336 338 339 339 337 335 334 333 328 323 323 327 329 330 329 330 330 328 325 323 321 320 322 319 315 312 312 314 315 317 320 321 320 318 317 315 314 314 314 314 315 315 314 312
89 88 88 89 87 83 78 74 66 58 48 34 26 21 18 18 12 5 2 2 352 343 334 330 330 334 338 337 338 337 335 334 332 326 320 320 324 328 329 329 328 326 323 320 319 318 317 316 313 311 310 310 312 313 314 315 314 315 315 314 312 312 312 312 314 315 315 314 313
90 86 81 77 74 72 68 60 49 41 37 34 37 44 50 50 35 16 9 4 356 347 337 329 327 332 337 337 336 334 332 331 330 324 318 318 324 325 325 326 324 321 317 314 315 316 315 312 309 307 307 309 311 312 312 313 314 314 313 312 311 310 310 311 313 315 315 314 313
89 83 77 71 69 68 64 56 48 44 47 60 72 80 83 77 69 44 20 13 9 358 348 335 330 330 334 335 332 329 326 325 322 319 316 316 319 319 318 318 317 316 313 311 310 311 311 310 306 304 305 307 308 309 309 311 313 313 312 311 309 308 308 309 312 314 314 313 312
89 82 76 72 70 68 65 60 60 65 73 78 87 96 100 99 101 117 206 294 17 7 351 340 333 327 326 326 322 322 322 320 316 316 317 316 315 313 312 311 311 310 309 306 304 303 305 307 303 302 304 306 307 306 306 309 311 312 312 311 308 306 306 308 310 312 312 311 311
87 80 76 75 73 70 69 69 74 82 87 86 89 94 99 111 123 139 156 197 294 348 337 334 327 322 320 319 319 319 320 320 320 319 318 315 312 310 309 307 306 305 304 302 301 299 300 303 303 302 303 305 304 303 304 308 311 313 313 311 309 307 306 307 310 311 311 310 310
83 77 75 73 72 70 70 72 76 83 87 82 103 108 104 119 133 148 168 201 240 303 308 312 317 318 318 317 319 320 320 320 322 320 317 313 311 309 306 305 303 303 303 302 302 301 300 301 301 302 303 304 303 303 305 308 310 311 311 310 308 306 306 306 307 307 307 307 308
83 77 74 72 70 71 72 70 68 66 69 82 114 125 126 132 149 166 185 201 310 307 301 300 307 310 312 315 319 320 320 322 322 320 318 316 313 311 307 305 304 304 304 304 303 302 300 299 298 299 302 303 303 304 305 306 306 306 306 306 305 305 304 304 303 302 303 304 305
82 78 74 73 72 72 72 69 68 71 83 109 129 139 141 147 161 175 195 232 313 308 299 297 300 303 307 311 316 319 320 323 323 322 320 318 316 315 313 310 308 308 307 306 303 301 298 297 297 299 301 302 302 302 303 303 301 300 300 301 302 302 302 302 301 301 302 303 304
78 74 71 71 71 69 68 69 71 83 106 130 144 152 156 156 164 169 197 296 294 294 294 296 298 303 305 309 314 317 320 321 321 321 320 320 319 317 315 313 311 309 307 305 303 301 299 298 299 300 301 302 302 302 303 303 301 300 299 299 300 300 300 300 300 301 302 303 304
76 69 65 64 62 60 59 61 60 61 92 150 162 169 171 168 165 165 192 280 280 279 282 293 298 304 307 309 313 317 319 319 318 317 317 317 318 317 314 311 309 306 303 303 303 303 302 302 303 304 304 304 304 304 305 305 304 303 301 300 300 300 299 299 300 300 301 301 302
76 67 57 54 50 51 49 45 38 26 21 183 190 190 188 181 172 175 214 254 269 274 278 289 298 304 310 311 312 314 315 316 315 313 313 314 315 313 310 306 304 302 301 301 303 305 305 305 305 305 306 306 306 306 306 306 306 305 304 302 302 301 300 300 299 299 299 298 298
82 59 39 38 41 43 38 27 18 6 333 209 210 211 202 191 182 190 231 257 272 282 287 290 294 301 308 311 311 311 312 313 312 311 310 310 309 308 306 304 303 304 304 304 305 305 306 305 305 305 305 306 306 305 305 306 306 306 305 305 304 302 301 299 298 297 296 295 295
101 35 10 17 27 25 16 9 2 349 286 217 220 220 215 200 195 207 247 267 280 289 294 293 294 297 303 307 307 307 308 308 308 308 306 305 305 305 305 305 306 306 305 305 305 305 305 304 304 305 305 306 305 305 305 305 305 306 306 306 305 303 300 298 296 294 294 294 294
202 281 327 348 356 356 353 348 343 333 280 225 226 230 228 219 212 220 251 271 280 289 296 300 301 299 299 301 303 304 304 304 304 304 304 304 305 306 306 306 306 305 304 304 304 304 304 303 304 305 306 306 306 305 305 306 306 306 306 305 304 302 300 297 295 294 294 294 295
239 262 277 281 326 339 338 332 326 315 284 246 241 245 247 242 230 229 246 268 281 290 297 304 305 303 302 302 303 302 302 302 304 305 307 307 308 308 307 306 305 305 304 304 304 303 303 304 305 306 307 307 306 306 306 306 306 306 305 304 303 302 300 298 297 295 295 295 296
248 256 261 273 302 319 326 326 317 303 284 268 262 257 254 253 245 240 246 262 279 290 297 300 303 305 306 306 305 304 304 305 307 308 309 309 309 308 307 306 305 305 305 305 305 305 306 307 308 308 308 307 307 306 306 306 305 305 305 305 305 303 301 299 298 297 296 295 295
258 263 268 285 296 302 307 313 309 298 285 276 268 258 250 249 251 252 252 256 269 284 293 295 298 301 304 306 306 307 308 309 310 310 310 310 308 308 307 306 306 306 306 306 307 307 308 309 310 310 309 308 308 307 306 305 305 305 307 308 307 305 303 300 299 297 296 295 294
263 268 274 287 296 297 297 298 299 295 287 276 266 255 246 244 249 255 259 261 267 279 288 292 295 297 301 304 307 309 310 310 311 311 310 309 308 307 307 307 307 307 307 307 307 308 309 310 311 311 311 311 310 308 307 305 305 306 308 308 307 305 303 302 300 298 296 294 293
260 266 275 291 296 295 293 292 293 292 285 274 264 254 248 248 252 258 264 269 272 278 284 289 293 298 302 305 309 310 311 311 311 311 310 310 310 309 308 308 307 307 307 307 307 308 309 311 312 313 313 312 311 309 308 307 307 307 308 308 307 306 305 304 303 301 298 296 295
257 266 280 291 295 295 292 292 290 287 280 271 265 256 252 254 256 260 266 271 274 276 280 286 293 298 303 307 309 310 311 311 311 311 311 311 311 310 309 308 307 306 306 306 307 308 310 312 313 313 312 312 311 310 310 310 309 309 309 308 307 307 306 306 305 303 301 300 300
259 272 283 287 289 290 291 290 287 283 279 272 263 257 255 256 259 262 266 270 272 277 282 288 293 298 302 305 307 308 309 310 309 310 311 312 312 311 310 308 307 306 305 306 307 310 311 311 311 311 311 311 312 312 313 313 312 311 310 309 308 307 307 306 305 304 303 302 302
267 279 284 283 284 285 287 287 286 283 279 272 264 258 257 258 261 265 268 272 276 281 285 289 293 296 300 302 304 306 307 308 309 310 311 312 313 312 311 309 307 306 305 306 308 309 310 309 308 309 311 312 313 314 315 314 313 312 311 310 308 307 306 305 304 303 302 302 302
273 280 281 281 281 283 285 286 286 283 279 272 266 261 260 261 263 267 272 276 280 283 286 289 291 294 297 300 302 304 305 307 309 310 312 314 314 314 312 310 308 306 306 306 304 303 303 306 307 309 311 313 314 315 315 314 313 312 311 309 308 307 306 305 304 303 303 304 304
274 277 276 276 278 281 284 286 286 282 277 272 267 264 263 263 265 269 274 278 281 284 286 288 289 292 295 297 299 302 304 306 308 310 312 314 315 315 314 312 310 309 307 304 298 298 301 304 307 309 311 313 314 315 314 314 313 312 310 309 309 308 307 306 305 305 305 306 307
273 274 274 275 276 280 285 287 286 281 276 272 268 266 265 266 269 273 277 281 283 285 286 287 288 289 291 294 297 300 302 305 307 309 311 314 316 317 317 315 313 311 307 297 294 298 304 307 309 310 312 314 315 315 315 314 313 312 310 309 308 308 307 307 306 307 307 308 308
272 274 276 277 277 281 285 288 286 281 276 271 268 266 267 269 273 278 281 283 285 286 286 286 288 288 290 294 297 299 302 305 308 310 312 315 317 319 319 318 316 314 308 296 297 303 309 311 311 312 314 315 316 315 314 314 313 311 310 309 308 307 307 307 308 308 309 309 309
273 276 279 280 280 283 286 288 286 281 276 271 268 268 269 272 275 279 282 284 286 287 287 288 290 292 295 298 299 301 303 305 308 312 315 317 319 320 320 319 318 315 307 299 303 309 314 315 314 314 314 315 316 315 314 313 313 312 310 309 308 308 308 308 309 309 309 309 309
275 278 280 282 283 285 287 290 287 283 277 273 270 269 269 272 275 278 281 283 284 287 289 292 294 296 298 299 301 303 304 307 311 314 317 319 320 320 320 318 318 315 310 306 310 315 318 318 316 314 314 315 316 316 314 314 313 312 310 309 308 309 309 309 309 309 309 309 309
278 280 282 283 283 286 289 291 289 284 279 274 270 268 269 272 275 278 280 281 283 286 290 294 296 297 298 300 302 305 307 311 314 316 318 319 320 319 319 318 317 315 311 309 314 320 322 320 317 315 314 315 316 315 314 313 311 310 309 308 308 308 309 309 309 309 309 310 311
280 282 284 284 285 287 290 291 289 284 277 271 268 267 269 273 276 279 281 282 285 287 290 293 294 296 298 301 304 307 310 313 316 317 319 319 319 319 319 317 318 316 312 311 318 322 323 321 319 316 316 316 317 315 313 311 309 308 307 306 307 308 309 309 310 310 311 312 313
282 284 286 287 288 289 290 291 288 283 275 268 265 266 269 273 277 280 282 284 286 289 292 295 296 298 301 304 306 308 310 312 315 318 319 320 319 320 319 318 320 319 316 316 320 322 322 320 319 318 317 317 315 313 310 309 307 306 305 305 307 308 310 311 311 312 313 314 315
283 285 287 289 290 291 291 291 287 280 272 265 263 265 269 273 278 280 280 282 284 289 294 299 301 303 305 306 307 308 310 313 316 319 320 320 320 320 320 318 320 319 317 319 322 322 320 319 318 316 315 315 313 311 309 307 306 305 305 306 308 310 311 312 312 312 313 314 315
283 285 287 290 291 292 292 291 286 278 270 265 265 267 271 275 279 280 280 281 286 292 297 299 302 302 303 302 304 308 311 314 318 320 321 321 322 321 320 319 321 318 316 320 322 322 321 319 317 315 315 316 314 312 309 308 307 307 307 308 310 311 312 313 313 313 313 314 315
284 285 286 289 291 293 293 292 288 281 273 270 272 274 275 277 279 280 282 286 291 294 296 297 298 297 297 299 304 309 314 318 320 321 322 322 323 323 322 321 321 318 316 321 323 324 323 322 320 319 320 320 317 314 312 311 310 309 309 310 311 312 312 313 313 313 313 314 316
285 284 285 288 291 292 292 291 287 283 278 277 279 280 280 280 279 280 284 289 293 295 296 296 295 295 297 303 309 314 318 320 321 323 324 325 326 326 324 323 323 321 320 322 324 326 326 326 325 325 326 326 321 318 316 315 313 312 311 311 311 312 313 314 313 313 313 315 317
286 284 284 287 289 290 290 289 286 284 283 283 282 283 283 282 282 282 285 290 294 296 297 296 296 298 303 311 315 316 317 320 322 324 325 326 328 328 327 326 325 326 325 324 325 327 329 330 331 332 332 330 325 322 321 319 316 314 313 313 313 314 315 314 313 313 313 315 317
286 286 286 287 287 288 288 287 285 284 285 284 284 284 284 282 283 286 289 293 297 299 298 296 297 301 309 315 316 315 315 318 322 324 326 327 329 331 330 329 327 329 329 325 325 328 332 335 336 337 337 334 329 326 324 321 318 316 315 315 315 316 316 315 315 314 315 316 318
289 289 288 287 286 286 285 284 283 283 283 283 285 285 284 283 286 290 294 295 297 296 294 292 296 302 310 315 315 313 312 316 321 327 330 330 330 330 332 331 329 330 329 325 325 330 335 339 341 342 341 337 333 330 326 323 320 318 318 318 317 317 318 318 318 317 317 318 318
289 288 287 285 284 283 282 281 281 281 282 282 285 285 285 286 290 294 294 292 289 285 283 286 292 300 307 313 314 312 311 314 319 328 333 332 330 330 332 332 331 331 331 328 328 332 337 342 344 345 344 341 336 332 328 325 323 321 321 321 321 321 321 321 320 319 319 319 319
287 287 286 283 281 279 279 279 279 280 280 280 282 285 287 290 292 292 290 285 279 272 273 281 290 297 301 305 310 311 312 312 313 320 328 329 329 331 333 332 331 333 334 334 333 335 339 345 347 347 346 343 339 334 330 328 326 325 325 325 326 325 324 322 321 320 320 319 320
Height
866 866 866 866 866 866 866 866 866 866 866 866 866 866 865 865 865 864 864 864 864 863 863 863 863 862 862 861 861 860 860 859 858 858 857 857 856 856 855 855 854 854 853 853 852 851 851 850 849 849 848 848 847 847 846 845 845 844 843 843 842 841 840 839 838 838 837 836 835
865 865 865 865 866 866 866 866 866 866 866 865 865 865 865 864 864 864 864 863 863 863 863 862 862 862 861 861 860 859 859 858 858 857 857 856 856 856 855 855 854 853 853 852 852 851 850 850 849 848 848 847 847 846 845 845 844 843 843 842 841 840 839 838 837 837 836 835 834
865 865 865 865 865 865 865 865 865 865 865 865 865 864 864 864 863 863 863 863 863 863 862 862 861 861 861 860 859 859 858 858 857 857 856 856 855 855 855 854 854 853 853 852 852 851 850 849 849 848 848 847 846 845 845 844 843 843 842 841 840 839 838 837 837 836 835 834 833
865 865 865 865 865 865 865 865 865 865 865 864 864 864 863 863 863 863 863 862 862 862 862 861 861 860 860 859 859 858 858 857 857 856 856 855 855 854 854 853 853 853 852 852 851 851 850 849 848 848 847 846 845 845 844 843 843 842 841 840 839 838 838 837 836 835 834 833 832
865 865 865 865 865 865 864 864 864 864 864 864 863 863 863 863 862 862 862 862 861 861 861 861 860 860 859 859 858 858 857 857 856 856 855 855 854 854 853 853 852 852 851 851 851 850 849 849 848 847 846 845 845 844 843 843 842 841 840 840 839 838 837 836 835 834 833 833 832
865 865 865 865 864 864 864 864 863 863 863 863 863 863 862 862 862 861 861 861 861 860 860 860 860 859 859 858 858 857 857 856 856 855 855 854 854 853 853 852 852 851 850 850 849 849 848 848 847 846 845 845 844 843 843 842 841 841 840 839 838 837 836 835 835 834 833 832 831
865 865 865 865 864 864 863 863 863 863 863 863 862 862 862 861 861 861 860 860 860 860 859 859 859 859 858 858 857 857 856 856 855 855 854 853 853 853 852 851 851 850 849 849 848 848 848 847 846 845 844 844 843 842 842 841 841 840 839 838 837 836 835 835 834 833 832 831 830
865 865 865 864 864 863 863 862 862 862 862 862 861 861 861 861 860 860 860 859 859 859 859 859 858 858 858 857 857 856 856 855 855 854 853 853 852 852 851 850 850 849 849 848 848 847 847 846 845 844 843 843 842 841 841 840 840 839 838 838 837 835 834 833 833 832 831 830 829
865 865 865 864 863 863 862 862 861 861 861 861 861 860 860 860 859 859 859 859 858 858 858 858 858 858 857 857 856 856 855 855 854 853 853 853 852 851 851 850 849 849 848 848 847 846 846 845 844 843 843 842 841 840 839 839 838 838 837 836 835 834 833 833 832 830 829 828 828
864 865 864 864 863 862 861 861 861 860 860 860 860 859 859 859 859 858 858 858 858 858 858 858 857 857 856 856 856 855 855 854 853 853 853 852 851 851 850 849 849 848 848 847 846 845 844 844 843 842 842 841 840 839 838 838 837 836 835 834 833 833 832 831 830 829 828 827 826
864 864 864 863 862 861 861 860 860 860 859 859 859 859 858 858 858 858 858 857 857 857 857 857 857 856 856 855 855 854 854 853 853 852 852 851 850 850 849 849 848 848 847 846 845 844 843 843 842 841 841 840 839 838 837 837 836 835 834 833 832 831 830 830 829 828 827 826 825
864 864 864 863 862 861 860 859 859 859 859 858 858 858 858 858 857 857 857 857 856 856 856 856 856 855 855 855 854 854 853 853 852 852 851 850 850 849 848 848 847 846 846 845 844 843 843 842 841 840 840 839 838 837 836 835 835 834 833 832 831 830 829 828 828 827 826 825 824
864 864 863 862 861 860 859 859 858 858 858 858 858 857 857 857 856 856 856 856 856 856 856 855 855 855 854 854 853 853 853 852 852 851 850 849 849 848 848 847 846 845 844 844 843 843 842 841 840 839 839 838 837 836 835 835 834 833 831 830 829 828 828 827 826 825 824 823 822
863 863 863 862 861 859 859 858 858 858 857 857 857 857 856 856 856 855 855 855 855 855 855 854 854 854 853 853 853 852 852 851 851 850 849 848 848 847 846 846 845 844 843 843 842 842 841 840 839 838 838 837 836 835 834 833 833 831 830 829 828 827 826 825 824 823 822 821 820
863 863 862 861 860 859 858 858 857 857 856 856 856 856 855 855 855 855 855 855 854 854 854 854 853 853 853 852 852 851 851 850 850 849 848 848 847 846 845 844 844 843 843 842 841 840 840 839 838 837 837 836 835 834 833 832 831 830 829 828 827 826 825 823 823 822 820 819 819
862 861 861 860 859 858 858 858 857 856 856 855 855 855 855 854 854 854 854 854 854 853 853 853 853 852 852 851 851 850 850 849 848 848 847 846 846 845 844 843 843 842 841 841 840 839 838 838 837 836 835 834 834 833 832 831 830 829 828 827 826 825 823 822 821 820 819 818 817
861 860 860 859 859 858 858 857 856 856 855 855 854 854 854 854 853 853 853 853 853 853 853 852 852 852 851 850 850 849 849 848 848 847 846 845 845 844 843 843 842 841 840 839 839 838 837 837 836 835 834 834 833 832 831 830 829 828 827 825 824 823 822 821 819 818 818 817 816
860 859 859 858 858 858 857 856 856 855 854 854 854 853 853 853 853 853 852 852 852 852 852 851 851 851 850 850 849 849 848 848 847 846 845 845 844 843 842 842 841 840 839 838 838 837 836 835 835 834 833 833 832 831 829 828 827 826 825 824 823 822 820 819 818 817 816 815 814
858 858 858 858 857 857 856 856 855 854 854 853 853 853 852 852 852 852 851 851 851 851 851 850 850 849 849 849 848 848 847 847 846 845 845 844 843 842 841 841 840 839 838 838 837 836 835 835 834 833 833 832 830 829 828 827 826 825 824 823 822 821 819 818 817 816 815 814 813
857 857 857 857 856 856 855 855 854 853 853 853 852 852 851 851 851 851 850 850 850 850 849 849 849 848 848 848 847 847 846 846 845 844 844 843 842 841 840 840 839 838 837 837 836 835 834 834 833 832 832 831 829 828 827 826 824 823 822 821 820 819 818 817 815 814 813 812 811
856 856 856 856 855 855 854 854 853 853 852 852 851 851 850 850 850 850 849 849 849 849 848 848 848 848 847 847 846 846 845 845 844 843 843 842 841 840 840 839 838 837 836 835 835 834 833 833 832 831 831 829 828 827 826 824 823 822 821 820 819 818 817 815 814 813 812 811 810
855 855 854 854 854 854 853 853 852 852 851 851 850 850 849 849 849 849 848 848 848 848 848 847 847 847 846 846 845 845 844 844 843 843 842 841 840 839 839 838 837 836 835 834 833 833 833 832 831 831 829 828 827 826 825 823 822 821 819 818 817 816 815 814 813 812 811 810 808
853 853 853 853 853 853 852 852 851 851 850 849 849 849 848 848 848 848 848 847 847 847 847 846 846 845 845 845 844 844 843 843 842 842 841 840 839 838 838 837 836 835 834 833 833 832 832 831 830 829 828 827 826 825 824 823 821 820 818 817 816 814 813 813 812 810 809 808 807
853 852 852 852 852 851 851 850 850 849 849 848 848 848 848 847 847 847 847 846 846 846 845 845 845 844 844 844 843 843 842 842 841 840 840 839 838 838 837 836 834 833 833 832 832 831 830 830 829 828 828 826 825 824 823 822 820 819 817 816 814 813 812 811 810 809 808 807 806
851 851 851 851 850 850 849 849 848 848 848 847 847 847 846 846 846 846 846 845 845 845 844 844 844 843 843 843 842 842 841 840 840 839 838 838 837 836 835 834 833 832 831 831 830 829 829 828 828 827 827 825 824 823 822 820 819 818 816 815 813 812 810 809 808 808 807 806 805
850 850 849 849 849 848 848 848 847 847 846 846 846 845 845 845 845 845 844 844 844 843 843 843 843 842 842 842 841 840 840 839 838 838 837 837 836 835 834 833 832 831 830 829 829 828 828 827 827 826 825 825 823 822 821 819 818 817 815 814 812 811 809 808 807 806 805 804 803
848 848 848 848 848 847 847 846 845 845 845 845 844 844 844 844 844 844 843 843 843 843 842 842 841 841 841 840 840 839 838 838 837 837 836 835 835 834 833 832 831 830 829 828 828 827 827 826 825 825 824 824 823 822 820 818 817 815 814 812 811 810 808 807 805 804 803 803 802
848 847 847 847 846 846 845 844 844 843 843 843 843 843 843 843 843 843 843 842 842 842 841 841 840 840 839 839 838 838 837 837 836 836 835 834 834 833 832 831 830 829 828 827 827 826 826 825 824 823 823 822 822 820 819 818 816 814 813 811 810 808 807 806 805 803 803 802 801
847 846 846 845 845 844 844 843 843 842 842 842 842 842 842 842 842 842 841 841 841 840 840 839 839 839 838 838 837 837 836 835 835 834 834 833 833 832 831 830 829 828 827 826 826 825 825 824 823 822 822 821 820 819 818 817 815 813 811 810 808 807 806 805 804 803 802 800 799
846 846 845 845 844 843 843 842 841 841 840 840 840 841 841 841 841 840 840 840 840 839 839 838 838 838 837 837 836 835 835 834 834 833 833 832 832 831 830 829 828 828 827 825 825 825 824 823 822 821 820 819 819 818 817 816 814 812 811 809 808 806 805 804 803 802 801 800 798
846 845 845 844 843 843 842 841 840 840 839 839 839 839 839 839 839 839 839 839 838 838 838 838 837 837 836 835 835 834 834 833 833 833 832 832 831 830 829 828 828 827 826 824 824 824 823 823 822 820 819 818 818 817 816 814 813 811 809 808 807 805 804 803 802 801 800 799 798
845 845 844 844 843 843 842 841 840 839 838 838 838 838 838 838 838 838 838 838 837 837 837 836 836 835 835 834 834 833 833 833 832 832 831 831 830 829 828 828 827 826 825 824 824 823 823 822 821 820 819 817 817 816 814 813 811 810 808 807 806 804 803 802 801 800 799 798 797
844 844 844 843 843 842 842 841 840 839 838 837 837 837 837 837 837 837 837 837 836 836 836 835 835 834 834 833 833 833 832 832 832 831 831 830 829 828 828 827 827 825 823 823 823 823 822 821 820 819 818 816 815 814 813 811 810 808 807 806 805 804 803 802 801 800 798 798 797
843 843 843 843 842 842 841 841 840 838 838 837 836 835 835 835 835 835 835 835 835 835 835 834 834 833 833 833 832 832 831 831 831 830 830 829 829 828 827 826 826 824 823 823 823 822 821 820 819 818 817 815 814 813 811 810 808 807 806 805 804 803 802 801 800 799 798 797 796
843 842 842 842 842 841 841 840 839 838 837 836 835 835 834 834 834 834 834 834 834 834 834 833 833 833 832 832 831 831 831 830 830 830 829 828 828 827 827 826 826 824 823 822 822 821 820 819 818 817 815 814 813 812 810 808 807 806 805 804 803 802 801 800 799 798 797 797 796
842 841 841 841 840 840 840 839 839 838 837 836 835 834 833 833 833 833 833 833 834 833 833 833 832 832 831 831 830 830 830 830 829 829 828 828 828 827 826 825 825 823 822 822 821 820 819 818 817 815 814 813 812 811 809 808 806 805 804 803 802 801 800 799 798 798 797 796 795
840 840 840 839 839 839 839 839 838 838 837 835 834 833 833 832 832 833 833 833 833 833 832 832 831 831 830 830 830 830 829 829 828 828 828 827 827 826 826 825 824 823 822 821 820 819 818 817 816 814 813 812 811 810 808 807 806 804 803 803 802 800 799 798 798 797 796 795 794
839 839 839 838 838 838 838 838 837 836 836 835 834 833 832 832 832 832 832 832 832 832 831 831 830 830 830 830 829 829 828 828 828 827 827 827 826 826 825 825 824 823 822 820 819 818 817 816 815 814 813 812 811 809 808 807 805 804 803 802 801 800 799 798 797 796 795 794 793
838 838 838 837 837 837 837 837 836 835 835 834 833 832 832 831 831 831 831 831 831 831 831 830 830 829 829 829 829 828 828 828 827 827 826 826 826 825 824 824 823 823 822 820 818 817 816 815 814 813 812 811 810 809 807 806 805 803 803 801 800 799 798 797 796 795 794 793 793
837 837 836 836 836 836 836 835 835 834 833 833 833 832 831 831 831 831 831 831 830 830 830 829 829 829 828 828 828 828 827 827 827 826 826 825 825 824 823 823 823 822 821 819 818 817 816 815 814 813 812 811 809 808 807 806 804 803 802 801 800 798 797 796 796 795 794 793 792
835 835 835 835 835 834 834 834 833 833 833 832 832 831 831 830 830 830 830 830 829 829 829 828 828 828 828 828 827 827 827 826 826 826 825 825 824 823 823 823 822 821 820 819 818 816 815 814 813 813 812 810 809 808 807 805 804 803 802 801 799 798 797 796 795 794 793 792 791